ZL3DRP Weather Reports


time (UTC)temp
F
wind
direction
speed
knots
gust
knots
rain 1hr
in
rain 24hr
in
rain mn
in
humidity
%
barometer
mb
20260506093024 55 5 0.9 2.6 0.00 0.01 0.01 73 1018.2
20260506092503 55 316 1.7 2.6 0.00 0.01 0.01 73 1018.1
20260506092003 55 301 1.7 3.5 0.00 0.01 0.01 73 1018.2
20260506091505 56 295 0.9 3.5 0.00 0.01 0.01 72 1018.1
20260506091003 56 293 0.0 2.6 0.00 0.01 0.01 71 1018.1
20260506090503 56 293 0.9 0.9 0.00 0.01 0.01 71 1018.1
20260506090026 57 293 0.9 2.6 0.00 0.01 0.01 71 1018.1
20260506085504 57 293 0.9 2.6 0.00 0.01 0.01 70 1018.2
20260506085005 58 293 0.9 2.6 0.00 0.01 0.01 70 1018.2
20260506084526 58 293 1.7 3.5 0.00 0.01 0.01 71 1018.2
20260506084003 58 287 1.7 5.2 0.00 0.01 0.01 71 1018.3
20260506083526 58 293 1.7 5.2 0.00 0.01 0.01 71 1018.3
20260506083003 58 303 1.7 3.5 0.00 0.01 0.01 70 1018.4
20260506082503 58 305 1.7 3.5 0.00 0.01 0.01 70 1018.5
20260506082003 59 307 1.7 3.5 0.00 0.01 0.01 69 1018.5
20260506081503 59 308 1.7 3.5 0.00 0.01 0.01 69 1018.6
20260506081024 59 306 1.7 5.2 0.00 0.01 0.01 68 1018.5
20260506080503 60 313 1.7 5.2 0.00 0.01 0.01 67 1018.7
20260506073503 61 340 1.7 4.3 0.00 0.01 0.01 66 1018.8
20260506073003 61 356 1.7 4.3 0.00 0.01 0.01 66 1018.9
20260506072503 61 7 1.7 2.6 0.00 0.01 0.01 65 1019.0
20260506072003 61 7 1.7 2.6 0.00 0.01 0.01 65 1019.0
20260506071503 61 7 1.7 2.6 0.00 0.01 0.01 65 1019.1
20260506071003 61 7 1.7 3.5 0.00 0.01 0.01 65 1019.1
20260506070503 62 5 1.7 4.3 0.00 0.01 0.01 64 1019.1
20260506062503 64 330 3.5 5.2 0.00 0.01 0.01 60 1018.9
20260506062024 64 336 3.5 6.1 0.00 0.01 0.01 59 1018.9
20260506061503 64 324 3.5 7.0 0.00 0.01 0.01 58 1018.9
20260506061003 65 311 4.3 7.0 0.00 0.01 0.01 58 1018.9
20260506060503 65 316 6.1 7.8 0.00 0.01 0.01 57 1019.0
20260506051003 64 314 7.8 14.8 0.00 0.01 0.01 57 1019.0
20260506050503 64 310 7.8 13.0 0.00 0.01 0.01 57 1018.9
20260506045003 65 306 10.4 13.9 0.00 0.01 0.01 56 1018.9
20260506044503 65 306 11.3 15.6 0.00 0.01 0.01 56 1018.8
20260506044003 65 308 11.3 18.2 0.00 0.01 0.01 55 1018.7
20260506043503 65 309 11.3 18.2 0.00 0.01 0.01 54 1018.5
20260506043024 66 311 10.4 17.4 0.00 0.01 0.01 54 1018.3
20260506042503 66 310 9.6 17.4 0.00 0.01 0.01 54 1018.3
20260506042003 65 307 8.7 17.4 0.00 0.01 0.01 54 1018.3
20260506041503 65 305 8.7 14.8 0.00 0.01 0.01 54 1018.3
20260506041024 66 308 8.7 13.0 0.00 0.01 0.01 54 1018.4
20260506040503 66 315 8.7 15.6 0.00 0.01 0.01 54 1018.4
20260506040003 66 316 9.6 15.6 0.00 0.01 0.01 53 1018.5
20260506035503 66 316 9.6 17.4 0.00 0.01 0.01 53 1018.5
20260506035003 66 323 9.6 17.4 0.00 0.01 0.01 52 1018.4
20260506034503 66 323 10.4 16.5 0.00 0.01 0.01 52 1018.4
20260506034004 66 317 11.3 18.2 0.00 0.01 0.01 52 1018.3
20260506033503 67 313 11.3 19.1 0.00 0.01 0.01 52 1018.2
20260506033024 67 314 10.4 21.7 0.00 0.01 0.01 51 1018.1
20260506032524 67 313 10.4 21.7 0.00 0.01 0.01 50 1018.1
20260506032003 67 312 10.4 17.4 0.00 0.01 0.01 51 1018.0
20260506031503 66 318 10.4 15.6 0.00 0.01 0.01 50 1017.9
20260506031024 66 320 10.4 15.6 0.00 0.01 0.01 50 1018.0
20260506030503 66 313 11.3 19.1 0.00 0.01 0.01 50 1018.0
20260506030003 66 310 12.2 23.5 0.00 0.01 0.01 49 1018.2
20260506025503 67 316 13.0 23.5 0.00 0.01 0.01 47 1018.2
20260506025004 67 315 13.0 20.0 0.00 0.01 0.01 47 1017.9
20260506024503 68 311 13.0 26.1 0.00 0.01 0.01 45 1018.1
20260506024004 68 316 13.0 26.1 0.00 0.01 0.01 44 1017.9
20260506023503 68 317 13.0 21.7 0.00 0.01 0.01 45 1017.8
20260506023003 68 314 12.2 25.2 0.00 0.01 0.01 45 1017.7
20260506022503 67 315 10.4 25.2 0.00 0.01 0.01 44 1017.8
20260506022003 68 317 10.4 17.4 0.00 0.01 0.01 45 1018.1
20260506021503 68 316 10.4 20.9 0.00 0.01 0.01 45 1018.0
20260506021003 67 317 10.4 20.9 0.00 0.01 0.01 46 1018.1
20260506020503 67 314 11.3 18.2 0.00 0.01 0.01 47 1018.2
20260506020003 67 315 13.0 24.3 0.00 0.01 0.01 45 1018.2
20260506015504 67 319 14.8 24.3 0.00 0.01 0.01 44 1018.2
20260506015003 68 315 14.8 24.3 0.00 0.01 0.01 43 1018.0
20260506014503 68 310 15.6 25.2 0.00 0.01 0.01 44 1017.9
20260506014003 68 315 15.6 25.2 0.00 0.01 0.01 45 1017.6
20260506013503 68 320 15.6 26.9 0.00 0.01 0.01 45 1017.7
20260506013003 68 322 13.9 26.9 0.00 0.01 0.01 44 1017.5
20260506012503 68 321 13.9 26.9 0.00 0.01 0.01 45 1017.5
20260506012004 69 321 13.9 25.2 0.00 0.01 0.01 44 1017.3
20260506011503 69 322 15.6 25.2 0.00 0.01 0.01 45 1017.7
20260506011003 69 316 15.6 29.5 0.00 0.01 0.01 44 1017.6
20260506010503 69 309 15.6 29.5 0.00 0.01 0.01 44 1017.4
20260506010004 69 310 15.6 27.8 0.00 0.01 0.01 45 1017.3
20260506005503 69 309 14.8 27.8 0.00 0.01 0.01 45 1017.2
20260506005003 70 309 14.8 27.8 0.00 0.01 0.01 45 1017.3
20260506004504 70 311 14.8 25.2 0.00 0.01 0.01 44 1017.2
20260506004003 70 314 14.8 25.2 0.00 0.01 0.01 45 1017.5
20260506003525 70 324 14.8 27.8 0.00 0.01 0.01 45 1017.7
20260506003003 70 322 13.9 27.8 0.00 0.01 0.01 45 1017.9
20260506002503 70 314 13.9 25.2 0.00 0.01 0.01 44 1017.8
20260506002003 70 310 13.9 25.2 0.00 0.01 0.01 44 1017.8
20260506001503 69 308 14.8 23.5 0.00 0.01 0.01 44 1018.0
20260506001003 68 311 14.8 22.6 0.00 0.01 0.01 45 1018.2
20260506000523 68 310 15.6 32.2 0.00 0.01 0.01 45 1018.0
20260506000002 68 310 14.8 32.2 0.00 0.01 0.01 46 1018.1
20260505235502 69 311 14.8 26.9 0.00 0.01 0.01 44 1018.0
20260505235023 69 310 14.8 25.2 0.00 0.01 0.01 45 1017.9
20260505234523 69 307 13.9 24.3 0.00 0.01 0.01 44 1018.0
20260505234003 69 301 12.2 28.7 0.00 0.01 0.01 44 1018.0
20260505233502 69 310 11.3 28.7 0.00 0.01 0.01 46 1018.1
20260505233002 69 322 11.3 22.6 0.00 0.01 0.01 44 1017.9
20260505232503 70 319 12.2 20.9 0.00 0.01 0.01 45 1018.0
20260505232002 69 316 11.3 23.5 0.00 0.01 0.01 47 1017.9
20260505231502 68 318 10.4 23.5 0.00 0.01 0.01 45 1018.1
20260505231002 68 312 11.3 17.4 0.00 0.01 0.01 47 1018.0
20260505230502 68 311 11.3 25.2 0.00 0.01 0.01 47 1017.9
20260505230003 68 316 11.3 25.2 0.00 0.01 0.01 47 1018.0
20260505225502 68 314 10.4 24.3 0.00 0.01 0.01 48 1018.0
20260505225003 68 313 10.4 24.3 0.00 0.01 0.01 47 1018.1
20260505224502 68 311 10.4 21.7 0.00 0.01 0.01 49 1018.0
20260505224002 68 317 10.4 22.6 0.00 0.01 0.01 49 1018.0
20260505223502 67 321 10.4 22.6 0.00 0.01 0.01 48 1018.2
20260505223002 67 313 12.2 18.2 0.00 0.01 0.01 48 1018.1
20260505222523 67 311 13.0 32.2 0.00 0.01 0.01 48 1018.1
20260505222023 67 313 12.2 32.2 0.00 0.01 0.01 48 1018.1
20260505221503 66 318 11.3 22.6 0.00 0.01 0.01 49 1018.0
20260505221002 66 317 11.3 22.6 0.00 0.01 0.01 50 1018.0
20260505220502 66 305 12.2 26.1 0.00 0.01 0.01 50 1018.1
20260505220002 66 300 11.3 26.1 0.00 0.01 0.01 50 1018.1
20260505215502 66 298 11.3 20.0 0.00 0.01 0.01 51 1018.1
20260505215002 65 301 11.3 23.5 0.00 0.01 0.01 52 1018.5
20260505214502 65 305 12.2 23.5 0.00 0.01 0.01 51 1018.5
20260505214002 65 308 13.0 22.6 0.00 0.01 0.01 52 1018.6
20260505213502 65 308 13.9 22.6 0.00 0.01 0.01 52 1018.5
20260505213002 64 309 13.9 25.2 0.00 0.01 0.01 52 1018.5
20260505212502 64 310 13.9 25.2 0.00 0.01 0.01 53 1018.3
20260505212002 63 310 13.9 21.7 0.00 0.01 0.01 54 1018.2
20260505211523 63 307 12.2 22.6 0.00 0.01 0.01 54 1018.4
20260505211003 63 299 12.2 22.6 0.00 0.01 0.01 55 1018.5
20260505210523 62 298 13.0 19.1 0.00 0.01 0.01 56 1018.7
20260505210003 63 299 13.0 22.6 0.00 0.01 0.01 55 1018.4
20260505205502 63 295 11.3 22.6 0.00 0.01 0.01 54 1018.4
20260505205003 63 294 10.4 20.0 0.00 0.01 0.01 56 1018.2
20260505204502 62 293 11.3 17.4 0.00 0.01 0.01 56 1018.6
20260505204002 63 291 12.2 21.7 0.00 0.01 0.01 56 1018.5
20260505203524 63 293 12.2 21.7 0.00 0.01 0.01 55 1018.5
20260505203003 62 292 13.0 21.7 0.00 0.01 0.01 55 1018.5
20260505202502 62 289 13.9 22.6 0.00 0.01 0.01 55 1018.7
20260505202002 62 287 13.9 22.6 0.00 0.01 0.01 55 1018.7
20260505201503 62 287 13.0 21.7 0.00 0.01 0.01 56 1018.7
20260505201002 61 291 13.0 22.6 0.00 0.01 0.01 56 1018.7
20260505200502 61 296 13.0 22.6 0.00 0.01 0.01 56 1018.7
20260505200002 61 296 13.0 22.6 0.00 0.01 0.01 56 1018.5
20260505195502 61 292 13.0 22.6 0.00 0.01 0.01 55 1018.5
20260505195002 61 290 13.0 24.3 0.00 0.01 0.01 54 1018.5
20260505194502 61 291 13.0 24.3 0.00 0.01 0.01 54 1018.5
20260505194003 61 291 13.0 22.6 0.00 0.01 0.01 54 1018.3
20260505193503 61 295 13.0 22.6 0.00 0.01 0.01 53 1018.2
20260505193023 61 297 12.2 21.7 0.00 0.01 0.01 54 1018.2
20260505192503 61 299 12.2 22.6 0.00 0.01 0.01 53 1018.4
20260505192002 61 298 11.3 22.6 0.00 0.01 0.01 53 1018.2
20260505191502 61 296 10.4 21.7 0.00 0.01 0.01 53 1018.1
20260505191002 61 296 9.6 21.7 0.00 0.01 0.01 53 1018.1
20260505190502 61 295 7.8 17.4 0.00 0.01 0.01 53 1018.2
20260505190003 61 303 6.1 17.4 0.00 0.01 0.01 53 1018.2
20260505185502 60 297 4.3 11.3 0.00 0.01 0.01 53 1018.3
20260505185003 61 257 5.2 12.2 0.00 0.01 0.01 52 1018.7
20260505184502 61 260 6.1 17.4 0.00 0.01 0.01 52 1018.7
20260505184023 61 257 7.8 17.4 0.00 0.01 0.01 52 1018.4
20260505183503 61 277 10.4 19.1 0.00 0.01 0.01 52 1018.5
20260505183023 61 297 11.3 20.0 0.00 0.01 0.01 52 1018.5
20260505182503 61 302 12.2 23.5 0.00 0.01 0.01 51 1018.6
20260505182003 61 300 12.2 23.5 0.00 0.01 0.01 51 1018.4
20260505181502 61 300 12.2 21.7 0.00 0.01 0.01 51 1018.3
20260505181003 61 294 10.4 26.1 0.00 0.01 0.01 51 1018.2
20260505180502 61 292 10.4 26.1 0.00 0.01 0.01 51 1018.2
20260505180003 61 294 10.4 16.5 0.00 0.01 0.01 51 1018.1
20260505175523 61 297 11.3 21.7 0.00 0.01 0.01 50 1018.3
20260505175003 61 299 12.2 22.6 0.00 0.01 0.01 50 1018.3
20260505174503 61 298 11.3 22.6 0.00 0.01 0.01 50 1018.4
20260505174002 60 302 11.3 21.7 0.00 0.01 0.01 50 1018.5
20260505173502 60 306 12.2 21.7 0.00 0.01 0.01 50 1018.5
20260505173023 60 306 11.3 22.6 0.00 0.01 0.01 50 1018.7
20260505172503 60 308 10.4 22.6 0.00 0.01 0.01 50 1018.5
20260505172003 60 319 11.3 20.9 0.00 0.01 0.01 50 1018.7
20260505171503 60 325 13.0 22.6 0.00 0.01 0.01 50 1018.7
20260505171003 60 325 14.8 22.6 0.00 0.01 0.01 49 1018.7
20260505170502 60 319 15.6 24.3 0.00 0.01 0.01 49 1018.7
20260505170003 61 306 14.8 26.1 0.00 0.01 0.01 48 1018.7
20260505165502 61 298 15.6 26.1 0.00 0.01 0.01 48 1018.4
20260505165003 61 287 14.8 27.8 0.00 0.01 0.01 47 1018.7
20260505164503 60 283 13.9 27.8 0.00 0.01 0.01 48 1018.5
20260505164003 60 293 13.0 22.6 0.00 0.01 0.01 49 1018.5
20260505163523 60 302 13.9 23.5 0.00 0.01 0.01 48 1018.7
20260505163002 60 297 13.9 23.5 0.00 0.01 0.01 48 1018.4
20260505162003 60 288 14.8 26.1 0.00 0.02 0.01 48 1018.6
20260505160503 60 303 11.3 25.2 0.00 0.02 0.01 47 1018.5
20260505153024 59 318 9.6 14.8 0.00 0.02 0.01 45 1018.7
20260505152503 59 318 8.7 17.4 0.00 0.02 0.01 45 1018.8
20260505152003 58 311 8.7 17.4 0.00 0.02 0.01 44 1018.9
20260505151503 58 302 7.8 17.4 0.00 0.02 0.01 46 1019.0
20260505151003 58 308 7.8 14.8 0.00 0.02 0.01 45 1019.3
20260505150503 58 301 7.8 16.5 0.00 0.02 0.01 46 1019.2
20260505140503 59 297 9.6 18.2 0.00 0.02 0.01 41 1019.6
20260505125003 44 320 4.3 10.4 0.01 0.02 0.01 86 1020.2
20260505124503 43 323 4.3 10.4 0.01 0.02 0.01 87 1020.1
20260505124003 42 325 3.5 7.8 0.01 0.02 0.01 88 1020.3
20260505123503 41 327 3.5 7.0 0.01 0.02 0.01 88 1020.3
20260505123003 41 327 2.6 6.1 0.01 0.02 0.01 88 1020.3
20260505122503 40 324 2.6 6.1 0.01 0.02 0.01 89 1020.3
20260505122003 39 323 3.5 6.1 0.01 0.02 0.01 89 1020.4
20260505121502 39 324 3.5 6.1 0.00 0.01 0.00 89 1020.4
20260505121003 38 322 3.5 6.1 0.00 0.01 0.00 89 1020.3
20260505120524 37 323 3.5 6.1 0.00 0.01 0.00 89 1020.5
20260505120024 36 319 2.6 6.1 0.00 0.01 0.00 89 1020.6
20260505115503 34 318 2.6 6.1 0.00 0.01 0.01 89 1020.6
20260505115024 32 324 2.6 6.1 0.00 0.01 0.01 89 1020.6
20260505114503 31 329 1.7 4.3 0.00 0.01 0.01 88 1020.7
20260505114024 31 338 0.9 4.3 0.00 0.01 0.01 88 1020.7
20260505113524 31 343 0.0 3.5 0.00 0.01 0.01 88 1020.7
20260505113003 31 343 0.0 3.5 0.00 0.01 0.01 88 1020.8
20260505112503 31 343 0.9 1.7 0.00 0.01 0.01 88 1020.9
20260505112024 31 343 0.9 1.7 0.00 0.01 0.01 88 1021.1
20260505111503 31 340 0.9 3.5 0.00 0.01 0.01 88 1021.1
20260505111003 32 339 0.9 3.5 0.00 0.01 0.01 88 1021.3
20260505110503 32 337 0.9 2.6 0.00 0.01 0.01 88 1021.3
20260505102003 34 57 0.9 1.7 0.00 0.01 0.01 88 1021.8
20260505101503 34 57 0.9 1.7 0.00 0.01 0.01 88 1021.8
20260505101024 35 57 0.9 1.7 0.00 0.01 0.01 88 1021.8
20260505100503 35 57 0.9 2.6 0.00 0.01 0.01 88 1021.8
20260505100003 36 57 0.9 2.6 0.00 0.01 0.01 88 1021.9
20260505095503 36 57 0.9 2.6 0.00 0.01 0.01 88 1022.0
20260505095003 37 57 1.7 1.7 0.00 0.01 0.01 88 1022.0
20260505094503 37 57 1.7 1.7 0.00 0.01 0.01 88 1022.1
20260505094003 38 57 1.7 2.6 0.00 0.01 0.01 88 1022.1
20260505093503 38 57 0.9 2.6 0.00 0.01 0.01 88 1022.3